Location: Kalberh�ni
(46.4610°N, 7.2453°E)
Time: 02:43:06
(UTC+00:00)

Cosmos 1447 Rocket - Pass Details

Date: 20 June 2021
Orbit: 954 x 996 km, 82.9° (Epoch: 25 July)

Event Time Altitude Azimuth Distance (km) Brightness Sun altitude
Exits shadow 21:44:53 20° 180° (S) 2,073 5.7 -16.0°
Maximum altitude 21:49:21 80° 97° (E) 988 4.4 -16.3°
Drops below altitude 10° 21:55:33 10° 11° (N) 2,705 7.7 -16.7°
Sets 21:58:02 0° 10° (N) 3,651 8.5 -16.9°
